Starlink 30504

operational
NORAD ID: 57980 Int'l Des: 2023-151 Owner: SPXS Country: US Constellation: starlink
LEOCIRCULAR

Über Starlink 30504

Beschreibung wird geladen...

Live-Position

3D-Globus wird geladen...

Nächste Überflüge

Höhenverlauf

Altitude vs Time

uPlot chart will show altitude changes over time

Zweizeiliger Elementsatz

1 57980U 23151S 25352.33335648 .00150393 00000-0 37152-2 0 9994
2 57980 42.9967 331.8972 0011590 136.1717 130.1411 15.39150861 5671
Epoch: 18. Dez. 2025 • Age: 5 hours

Aktueller Status

Höhe 463.8 km
Geschwindigkeit 7.63 km/s
Subsatellitenpunkt -28.51°S, 14.63°E
Startdatum 30. Sept. 2023
Alter 2.2 years
Typ internet

Technische Details

Klassifizierung Payload
Masse 730.00 kg
Trockenmasse 700.00 kg
Gesamtmasse 730.00 kg
Länge 0.30 m
Durchmesser 4.10 m
Spannweite 29.00 m
Form Box + pan
Hersteller SPXS
Bus-Typ Starlink V2M
Phasenstatus In Orbit
Besitzer/Staat SPXS/US

Große Konstellationen

Loading constellations...